Location: Beccas
(43.4309°N, 0.1528°E)
Time: 08:11:00
(UTC+00:00)

Cosmos 1703 - Pass Details

Date: 24 May 2022
Orbit: 518 x 535 km, 82.5° (Epoch: 06 July)

Event Time Altitude Azimuth Distance (km) Brightness Sun altitude
Exits shadow 03:34:52 11° 230° (SW) 1,701 5.1 -8.6°
Maximum altitude 03:37:56 26° 286° (WNW) 1,086 4.5 -8.1°
Drops below altitude 10° 03:41:17 10° 344° (NNW) 1,797 6.2 -7.7°
Sets 03:43:43 0° 357° (N) 2,691 7.4 -7.3°
